Wind_Speed
16 16 24 18 28 23 11 16 17 18 17 16 13 13 16 16 17 18 18 11 9 8 8 8 7 6 4 1 4 5 6 7 7 7 9 10 11 11 10 11 13 12 12 10 10 13 12 11 12
22 14 12 28 30 11 16 15 16 17 17 21 18 19 19 17 16 16 16 15 13 10 9 8 7 7 5 3 1 5 5 7 8 8 8 10 11 12 11 12 12 14 13 12 10 11 12 12 12
16 20 30 33 10 13 13 12 14 15 19 22 20 20 20 22 20 17 14 12 12 10 9 8 7 7 5 3 1 2 4 6 8 7 7 9 10 13 13 12 13 12 14 13 8 11 12 12 12
23 29 34 19 11 12 11 10 12 17 18 19 23 21 24 25 24 19 13 11 10 11 10 8 8 6 5 4 2 2 3 5 7 7 8 7 8 11 13 14 14 13 14 14 11 12 12 11 11
21 37 35 18 12 10 10 10 13 14 17 20 22 25 27 27 27 22 17 13 9 10 11 11 9 6 5 4 2 1 2 3 5 7 7 7 8 4 13 15 16 15 15 15 13 13 13 12 13
28 34 24 4 15 10 12 12 12 12 13 15 20 26 29 29 28 25 22 20 11 10 12 12 13 9 4 4 3 2 1 1 2 3 5 8 5 8 7 16 17 17 16 15 13 14 15 14 14
10 12 13 10 5 18 12 11 15 16 19 19 21 24 25 27 30 30 23 25 19 13 13 15 15 13 9 3 2 4 4 4 4 5 7 7 7 8 5 10 18 18 17 16 15 15 16 16 16
25 17 22 11 19 16 18 13 18 16 18 18 21 20 22 26 29 30 26 28 29 26 21 19 18 16 14 10 5 4 6 7 8 8 8 11 11 10 8 8 17 19 19 17 17 15 16 16 17
16 24 19 5 3 15 15 15 16 8 15 21 23 20 20 22 24 27 30 31 32 28 28 24 22 18 15 12 9 7 7 8 10 12 12 12 13 14 10 9 13 20 20 19 19 17 18 18 16
6 10 11 10 3 12 16 12 16 16 20 17 21 19 18 21 21 23 28 28 30 31 29 27 25 25 21 17 10 10 21 14 11 14 16 14 14 15 13 11 10 22 22 21 20 20 19 20 19
5 5 3 2 12 3 13 12 20 20 21 20 17 18 21 22 22 25 27 29 28 27 27 24 22 24 26 23 17 11 14 19 12 15 17 17 15 15 15 15 14 20 22 21 21 21 21 20 20
7 4 7 4 14 7 3 7 9 17 12 13 19 18 18 21 20 23 29 30 28 28 29 28 25 25 24 24 21 15 12 15 16 12 14 17 17 16 16 15 16 17 22 20 21 20 20 20 19
13 6 12 12 8 18 12 6 11 9 15 17 24 23 18 20 20 21 22 26 29 28 29 26 25 27 28 24 27 13 13 15 18 14 9 17 18 17 17 16 16 19 19 21 21 20 20 18 18
14 17 15 12 5 12 18 11 14 10 14 18 22 25 21 19 19 21 22 25 24 28 28 31 34 37 39 36 26 16 14 15 17 8 7 15 16 16 15 17 17 20 20 20 20 19 19 21 21
13 13 12 6 11 11 22 13 15 14 15 13 21 23 24 18 21 19 20 22 26 30 27 31 35 39 40 38 36 25 14 12 14 15 6 14 14 15 16 18 18 19 19 18 18 20 19 19 23
13 12 11 3 13 13 12 19 19 14 16 21 24 22 25 19 20 17 20 22 26 29 29 32 34 38 39 40 41 32 16 7 8 14 10 1 13 18 18 17 19 19 19 18 17 18 20 20 18
12 10 10 9 20 13 12 16 14 17 5 20 28 25 25 25 16 19 18 24 25 27 29 32 32 35 43 38 41 40 20 5 8 10 10 4 5 14 17 17 18 18 20 19 18 17 19 19 19
10 9 11 10 19 21 11 10 17 11 15 22 31 26 30 28 18 20 20 24 26 26 27 30 33 35 37 44 44 37 13 3 5 7 9 6 6 7 15 21 17 18 20 20 18 18 19 19 18
16 17 20 20 21 18 22 17 23 14 15 15 26 35 28 23 27 21 22 23 24 24 25 27 31 35 36 40 40 19 13 8 10 8 4 7 5 6 12 18 19 22 22 21 21 21 22 21 19
20 21 21 21 25 24 22 20 24 12 16 21 14 28 32 23 22 27 23 18 24 24 27 25 30 33 34 37 35 12 11 11 14 12 8 9 9 8 8 11 19 23 24 22 23 22 21 20 21
21 23 19 19 17 20 21 21 21 12 11 9 14 19 28 30 26 24 22 16 23 26 24 22 27 30 32 28 32 21 19 16 13 14 11 10 12 10 10 11 13 21 22 24 21 21 23 23 19
24 21 18 19 20 21 16 21 17 15 13 8 13 24 19 24 23 20 18 16 22 25 23 22 27 29 27 27 27 22 22 19 15 13 12 13 10 11 11 10 13 18 18 18 21 20 21 19 20
24 21 18 21 21 21 22 21 16 18 7 15 20 23 20 6 25 27 22 16 20 26 24 28 29 30 27 28 28 24 28 19 17 15 12 10 11 10 9 10 13 16 18 20 20 18 19 21 21
25 22 21 22 19 24 20 19 18 15 26 30 23 27 18 21 17 26 29 21 19 25 27 25 29 34 30 33 36 31 34 20 19 15 13 11 10 11 13 13 15 16 19 19 20 20 21 23 22
24 21 21 19 19 20 10 18 17 9 31 20 19 19 21 26 25 31 29 22 20 23 29 26 34 33 34 36 37 38 32 16 18 14 13 10 11 11 12 12 18 20 19 19 18 20 21 22 20
17 21 22 19 14 12 15 23 16 15 26 27 19 27 35 37 31 20 21 17 19 23 28 32 35 35 37 41 42 36 24 14 14 11 11 10 11 8 11 10 14 12 19 19 18 19 19 23 23
22 23 22 22 22 21 14 13 21 21 22 23 23 26 30 26 17 19 17 16 20 25 29 31 30 34 40 48 24 27 10 12 7 8 9 8 11 10 10 10 11 13 14 15 18 19 18 21 24
27 22 20 20 19 22 18 14 21 21 15 27 26 21 20 21 18 17 15 16 21 25 25 25 28 35 40 32 25 6 6 9 3 5 10 13 13 13 11 8 9 11 14 14 13 13 13 16 18
28 27 27 21 19 18 13 17 26 27 31 25 17 16 21 15 14 14 14 19 23 21 20 22 24 30 29 14 14 7 7 4 4 6 10 13 13 13 11 12 10 7 11 12 13 14 12 13 16
26 24 23 26 28 27 25 25 29 23 23 30 21 21 18 12 12 15 18 18 18 16 18 17 16 23 14 11 15 8 6 5 7 8 12 13 14 13 13 13 12 11 9 11 13 17 17 16 17
Wind_Direction
64 60 70 62 56 67 95 62 47 44 40 42 40 35 29 30 33 31 27 39 36 28 15 14 6 5 2 324 220 209 194 187 188 184 185 189 187 187 178 177 171 173 155 140 145 157 147 140 142
74 76 73 70 59 62 70 68 68 55 46 51 50 40 46 47 48 46 45 40 37 29 19 16 5 11 22 22 258 221 207 192 199 198 185 188 189 189 188 180 176 174 161 140 135 147 145 148 146
84 70 64 63 60 73 71 68 62 52 48 49 48 45 44 47 47 53 49 41 37 34 25 17 6 14 26 15 11 210 212 201 200 201 189 194 184 190 195 189 180 176 162 158 155 154 151 154 150
79 69 68 61 54 62 54 50 48 43 44 44 43 39 42 40 40 45 46 43 46 46 37 25 18 13 21 357 25 98 188 195 206 204 195 188 184 190 195 192 187 183 171 175 172 162 159 157 146
76 78 74 2 7 38 42 33 39 34 33 40 39 36 37 38 36 35 49 48 47 53 43 32 21 13 7 356 345 40 117 173 200 217 213 212 212 205 201 193 190 185 183 177 175 166 162 160 151
74 70 77 21 353 22 30 6 25 23 30 37 33 37 37 35 37 36 53 59 44 59 57 37 28 28 360 333 304 290 269 241 190 207 228 237 239 288 182 195 193 185 188 187 184 173 166 168 163
341 32 74 117 111 1 16 8 3 15 17 26 25 36 34 36 37 38 54 49 52 56 62 51 35 32 27 354 324 301 287 265 249 234 231 229 225 217 229 209 198 187 191 189 192 179 173 175 171
99 112 113 342 344 321 2 3 359 21 17 5 17 26 32 33 36 37 47 51 50 52 47 48 41 35 25 20 4 318 288 277 268 253 239 240 220 223 217 208 196 196 192 191 194 185 184 182 178
85 56 57 71 329 318 17 352 341 309 42 16 16 18 28 32 32 38 41 46 52 50 51 46 40 32 25 18 4 341 337 295 273 263 248 234 227 217 220 220 203 191 192 193 190 191 189 189 190
49 68 68 308 237 18 267 2 342 347 27 33 26 22 22 32 26 34 41 42 45 47 47 47 40 30 18 4 359 335 338 324 271 261 247 234 224 221 211 221 214 197 195 195 192 193 196 194 193
303 350 318 316 283 246 339 335 329 357 343 11 10 13 19 24 23 27 33 37 40 40 39 44 36 31 25 16 3 341 324 334 326 265 239 230 227 226 217 214 211 197 194 195 198 197 200 202 197
243 268 252 290 288 309 332 286 307 318 324 333 345 359 12 12 21 24 27 26 32 33 32 33 33 25 19 16 5 353 336 338 355 294 237 219 219 222 207 213 212 204 203 204 204 204 207 207 207
248 304 267 259 264 288 291 277 271 316 307 328 329 336 355 359 8 16 26 22 26 28 20 20 23 21 14 9 11 352 336 345 346 348 212 215 217 216 218 212 205 209 203 209 208 210 213 214 214
200 232 251 251 241 268 302 297 270 296 305 316 322 328 336 352 356 11 12 15 18 15 12 7 11 8 7 1 2 352 356 346 341 354 250 227 218 214 217 215 206 210 207 211 211 214 216 220 221
266 253 217 271 285 248 289 286 254 241 269 319 317 318 324 340 347 7 4 8 16 14 8 3 5 5 355 348 351 334 330 340 332 335 51 235 224 219 213 213 213 212 212 214 216 223 223 223 222
224 230 261 309 263 252 290 285 286 330 337 317 310 308 313 325 333 354 358 356 8 12 5 5 2 358 359 357 347 334 292 313 333 339 3 281 233 222 213 209 215 210 215 214 221 224 227 229 226
241 248 261 267 277 271 284 258 312 335 272 280 319 312 319 313 321 331 344 345 358 2 3 9 360 355 2 352 352 337 282 302 345 331 324 19 198 224 217 212 217 216 217 220 219 226 232 232 229
253 269 271 278 280 296 277 272 275 233 303 320 305 307 324 312 307 317 331 337 349 354 356 357 356 360 352 358 344 334 258 277 330 326 321 313 215 238 225 219 211 221 224 220 224 230 233 233 235
241 233 228 228 224 235 249 269 251 270 268 268 285 303 303 314 302 302 317 331 350 348 347 349 347 350 349 349 347 356 10 330 320 307 308 290 275 225 231 223 227 219 221 223 227 227 230 231 237
250 253 258 251 244 244 256 265 270 219 260 258 257 290 302 298 294 296 309 330 343 340 338 344 339 346 345 355 5 14 339 328 316 316 323 297 271 248 223 223 223 222 226 228 233 234 230 238 235
248 245 241 254 257 257 262 264 274 267 253 283 261 277 274 287 290 290 305 325 334 341 336 334 326 342 345 349 352 346 335 329 325 315 318 299 271 251 247 238 236 232 240 249 234 237 245 241 238
250 255 260 265 263 264 263 270 258 275 269 258 254 256 245 264 278 295 309 312 327 335 324 319 315 334 336 346 343 339 321 322 321 308 298 291 268 256 252 246 240 236 245 243 249 245 248 248 245
247 245 245 250 254 264 259 262 255 259 227 242 258 266 254 224 289 291 297 315 321 320 313 312 321 330 328 327 331 322 324 308 303 302 303 282 277 273 265 257 253 251 254 250 254 253 246 244 245
249 243 247 256 257 257 257 254 252 226 247 239 228 231 250 264 272 289 296 311 316 316 304 311 319 323 323 323 325 324 329 302 308 307 304 298 279 273 271 261 257 247 245 250 250 250 252 249 244
243 244 250 253 246 262 288 259 262 240 250 246 241 259 258 275 284 286 286 303 314 303 305 313 316 320 320 320 317 315 323 296 299 312 316 303 286 281 269 256 247 240 239 241 249 251 250 246 247
233 238 235 241 245 266 290 262 249 250 255 261 231 250 259 275 283 282 282 294 297 301 308 308 314 315 314 315 306 301 309 283 288 319 317 314 322 307 290 270 267 255 247 237 241 248 253 245 247
216 220 229 237 231 254 249 266 233 215 234 250 252 245 273 272 268 255 270 281 289 297 304 307 313 315 313 315 294 278 252 260 295 314 314 334 350 348 331 294 235 241 243 248 246 247 249 245 249
235 225 227 231 241 246 244 251 259 280 245 235 232 275 271 279 264 252 263 283 296 302 304 313 321 322 320 323 227 222 208 245 272 323 343 352 355 349 354 319 272 276 257 248 243 248 256 266 264
231 235 217 223 235 245 247 258 259 217 198 215 240 272 280 267 247 252 265 275 291 305 310 321 333 347 348 351 118 149 224 243 286 322 333 330 336 334 342 334 316 282 256 246 241 248 251 255 263
225 230 239 222 228 223 234 250 245 223 229 243 252 280 271 257 252 255 267 283 302 309 312 325 356 358 347 56 18 349 302 309 316 333 323 327 331 341 346 340 323 303 274 253 252 259 261 260 252
Height
5915 5915 5914 5912 5911 5909 5911 5911 5908 5905 5903 5900 5897 5894 5890 5886 5884 5883 5880 5880 5879 5878 5877 5877 5876 5876 5877 5878 5879 5879 5879 5879 5880 5881 5882 5884 5885 5886 5887 5888 5889 5891 5893 5894 5895 5896 5897 5899 5900
5917 5922 5917 5913 5911 5915 5913 5912 5910 5908 5905 5901 5898 5894 5892 5890 5886 5883 5882 5880 5880 5878 5878 5877 5876 5876 5876 5877 5878 5878 5879 5880 5881 5881 5882 5883 5885 5886 5887 5889 5890 5891 5893 5895 5896 5896 5898 5900 5902
5925 5921 5917 5911 5921 5917 5916 5915 5913 5910 5906 5903 5901 5899 5895 5891 5887 5884 5882 5881 5880 5879 5878 5878 5877 5877 5877 5877 5878 5878 5879 5880 5881 5882 5882 5883 5884 5886 5888 5889 5891 5892 5894 5895 5896 5897 5899 5901 5902
5925 5919 5915 5924 5922 5920 5918 5917 5915 5912 5908 5906 5902 5902 5897 5892 5888 5886 5883 5881 5881 5879 5879 5878 5878 5878 5878 5878 5878 5878 5879 5880 5881 5882 5883 5884 5884 5885 5886 5888 5891 5893 5894 5894 5896 5897 5899 5902 5903
5926 5913 5914 5930 5925 5922 5920 5919 5916 5914 5910 5907 5905 5903 5900 5895 5892 5888 5884 5882 5882 5879 5878 5878 5877 5877 5878 5878 5878 5879 5880 5880 5881 5883 5884 5885 5885 5885 5886 5887 5890 5893 5895 5895 5896 5898 5900 5902 5903
5926 5919 5921 5935 5928 5925 5922 5919 5918 5916 5914 5910 5907 5904 5901 5899 5895 5891 5887 5885 5881 5879 5878 5879 5879 5878 5878 5878 5879 5879 5880 5880 5881 5882 5883 5884 5885 5886 5886 5887 5890 5893 5895 5896 5897 5899 5900 5903 5905
5921 5916 5927 5931 5929 5928 5925 5922 5919 5918 5915 5911 5908 5906 5904 5901 5897 5893 5889 5885 5882 5881 5879 5880 5881 5880 5880 5879 5880 5880 5880 5880 5881 5882 5882 5883 5885 5886 5887 5888 5889 5892 5894 5896 5898 5900 5901 5903 5904
5928 5929 5923 5934 5935 5930 5928 5924 5924 5923 5920 5915 5911 5909 5906 5903 5900 5896 5891 5888 5884 5884 5884 5883 5883 5883 5883 5882 5881 5880 5880 5880 5880 5880 5881 5882 5883 5884 5886 5887 5889 5892 5893 5896 5898 5900 5902 5903 5904
5931 5930 5933 5940 5938 5933 5930 5926 5927 5921 5919 5917 5912 5910 5907 5906 5903 5900 5897 5894 5891 5889 5887 5886 5885 5884 5884 5884 5883 5882 5881 5880 5879 5878 5879 5880 5881 5883 5885 5887 5888 5891 5893 5895 5897 5900 5902 5903 5904
5934 5938 5938 5940 5938 5932 5929 5930 5927 5918 5912 5918 5915 5913 5910 5909 5905 5903 5899 5897 5894 5891 5889 5888 5887 5886 5886 5884 5882 5881 5882 5881 5878 5877 5876 5878 5879 5881 5884 5885 5887 5889 5892 5894 5896 5899 5901 5902 5903
5937 5936 5940 5941 5936 5934 5928 5929 5928 5922 5914 5915 5916 5914 5912 5910 5908 5905 5901 5899 5895 5893 5891 5890 5887 5886 5885 5883 5882 5879 5879 5879 5877 5874 5875 5877 5879 5880 5882 5883 5885 5888 5891 5893 5895 5897 5899 5902 5904
5938 5937 5938 5939 5935 5933 5934 5934 5932 5926 5922 5919 5917 5915 5913 5911 5909 5907 5904 5900 5898 5895 5892 5889 5887 5886 5884 5882 5880 5879 5877 5876 5873 5871 5871 5873 5876 5878 5880 5883 5885 5887 5889 5892 5894 5897 5900 5901 5903
5934 5936 5937 5935 5935 5933 5931 5929 5930 5927 5923 5920 5917 5915 5914 5913 5910 5908 5904 5902 5900 5897 5894 5890 5888 5886 5884 5880 5878 5878 5876 5872 5869 5869 5869 5871 5874 5877 5879 5881 5882 5885 5889 5891 5894 5896 5898 5901 5903
5926 5928 5928 5929 5931 5933 5930 5928 5928 5925 5923 5917 5917 5914 5914 5913 5910 5908 5905 5903 5900 5899 5896 5892 5890 5888 5886 5882 5879 5876 5876 5872 5869 5868 5868 5871 5873 5874 5877 5880 5882 5884 5887 5890 5893 5895 5897 5899 5902
5923 5923 5925 5927 5930 5931 5929 5927 5925 5921 5920 5916 5916 5914 5912 5912 5910 5909 5906 5904 5902 5900 5897 5894 5891 5887 5883 5881 5878 5876 5873 5872 5869 5868 5867 5867 5871 5872 5874 5878 5881 5883 5885 5888 5891 5893 5895 5897 5898
5917 5920 5922 5926 5930 5928 5927 5923 5920 5920 5916 5915 5914 5914 5911 5912 5910 5909 5906 5904 5903 5901 5898 5896 5891 5887 5881 5877 5877 5871 5868 5868 5868 5865 5866 5868 5868 5871 5872 5874 5878 5881 5883 5886 5889 5891 5893 5894 5896
5914 5917 5922 5927 5927 5925 5924 5924 5922 5917 5917 5912 5914 5911 5911 5908 5909 5908 5906 5904 5903 5901 5898 5895 5891 5886 5881 5877 5872 5865 5834 5863 5866 5866 5866 5866 5867 5870 5872 5872 5876 5880 5882 5884 5886 5888 5890 5892 5893
5913 5918 5923 5926 5925 5924 5921 5922 5922 5913 5917 5915 5909 5907 5908 5906 5908 5906 5904 5904 5902 5900 5898 5894 5890 5887 5881 5875 5869 5862 5859 5863 5865 5864 5864 5866 5866 5867 5870 5871 5873 5877 5880 5881 5883 5885 5887 5888 5891
5908 5912 5915 5920 5921 5919 5919 5917 5916 5916 5919 5921 5913 5907 5904 5905 5901 5904 5902 5902 5902 5899 5897 5894 5889 5885 5879 5877 5869 5861 5861 5863 5866 5864 5862 5864 5864 5863 5867 5869 5870 5872 5876 5878 5879 5880 5883 5884 5887
5905 5907 5910 5911 5912 5912 5912 5911 5914 5912 5915 5914 5915 5906 5901 5900 5899 5898 5900 5900 5899 5898 5895 5893 5887 5884 5880 5876 5873 5869 5866 5866 5867 5864 5860 5861 5861 5862 5862 5864 5867 5868 5871 5874 5875 5876 5878 5880 5883
5899 5899 5902 5905 5907 5908 5907 5906 5907 5907 5908 5909 5911 5910 5902 5896 5897 5896 5896 5898 5897 5896 5894 5891 5886 5884 5880 5877 5874 5872 5870 5866 5865 5864 5861 5860 5861 5860 5860 5861 5863 5866 5869 5871 5872 5873 5875 5877 5879
5894 5895 5897 5899 5901 5901 5903 5902 5904 5906 5904 5908 5908 5904 5901 5894 5893 5891 5895 5896 5895 5892 5890 5888 5883 5883 5880 5876 5873 5871 5869 5866 5864 5863 5860 5858 5859 5859 5858 5858 5859 5861 5864 5866 5868 5870 5871 5873 5873
5888 5889 5892 5894 5894 5895 5896 5898 5898 5901 5902 5906 5901 5899 5894 5894 5889 5889 5892 5895 5893 5889 5887 5884 5882 5881 5878 5874 5873 5871 5867 5865 5863 5860 5859 5857 5856 5855 5855 5855 5856 5857 5859 5861 5863 5864 5865 5867 5868
5883 5883 5885 5886 5888 5888 5890 5892 5895 5897 5895 5896 5890 5893 5886 5888 5892 5890 5885 5890 5888 5886 5882 5881 5878 5876 5874 5871 5868 5866 5865 5862 5860 5857 5856 5853 5852 5851 5851 5850 5851 5853 5854 5856 5858 5859 5861 5863 5863
5876 5878 5879 5882 5884 5884 5888 5889 5891 5894 5889 5889 5892 5885 5883 5885 5890 5888 5884 5885 5883 5882 5877 5877 5873 5870 5869 5866 5864 5860 5860 5859 5859 5856 5851 5850 5849 5846 5846 5845 5841 5845 5849 5851 5853 5856 5857 5858 5859
5870 5874 5875 5878 5882 5885 5888 5886 5889 5890 5888 5877 5885 5885 5881 5882 5884 5882 5880 5881 5880 5880 5876 5873 5870 5867 5862 5860 5857 5854 5855 5857 5857 5853 5851 5849 5846 5844 5842 5841 5841 5841 5844 5846 5848 5850 5852 5854 5855
5864 5866 5872 5874 5876 5878 5882 5884 5882 5881 5879 5882 5880 5874 5880 5879 5877 5877 5877 5878 5877 5877 5874 5871 5868 5862 5857 5850 5844 5848 5852 5856 5853 5853 5851 5847 5844 5841 5839 5838 5839 5840 5842 5843 5844 5845 5847 5848 5850
5856 5862 5866 5868 5872 5873 5876 5879 5872 5874 5875 5870 5870 5874 5875 5874 5873 5874 5875 5875 5874 5873 5871 5868 5864 5857 5851 5839 5837 5843 5848 5851 5850 5851 5849 5846 5844 5841 5837 5837 5837 5838 5838 5838 5841 5841 5842 5843 5844
5854 5854 5857 5864 5869 5870 5873 5872 5868 5863 5861 5862 5867 5869 5869 5869 5870 5872 5873 5872 5871 5869 5867 5865 5862 5854 5844 5834 5829 5842 5848 5849 5849 5848 5848 5846 5843 5841 5837 5837 5836 5835 5836 5836 5836 5838 5838 5838 5840
5848 5851 5852 5855 5859 5860 5863 5864 5858 5862 5863 5857 5863 5863 5864 5864 5866 5868 5868 5868 5867 5865 5863 5862 5859 5855 5849 5844 5844 5845 5847 5846 5847 5845 5845 5843 5842 5840 5837 5836 5835 5835 5834 5834 5833 5835 5836 5837 5835